GFSSGP_850_spd_213.txt.gz
Wind_Speed
3 5 5 4 3 5 3 3 1 1 3 8 9 6 8 7 2 3 9 9 11 13 11 9 7 8 11 11 11 10 10 10 9 8 8 8 7 7 7 7 7 10 9 5 6 6 8 8 7
5 7 6 3 4 2 5 3 2 2 5 11 11 6 8 3 5 6 7 11 12 12 12 8 9 8 11 10 10 10 10 9 8 7 8 6 6 6 6 6 8 9 8 4 6 6 7 7 7
5 8 3 4 4 5 4 3 3 2 7 2 5 9 5 3 6 5 6 10 11 11 12 9 10 8 9 10 9 9 9 9 8 6 7 7 6 6 6 6 7 8 7 6 6 5 5 5 6
4 4 4 3 4 4 4 4 4 2 4 5 12 6 6 5 4 9 7 9 10 12 13 10 7 8 7 6 5 7 8 9 9 7 6 6 7 7 6 6 7 8 6 6 8 6 5 4 5
3 2 3 1 3 2 3 2 3 2 3 4 3 4 4 11 15 12 8 6 8 12 11 9 8 7 8 8 7 5 5 9 11 11 9 8 7 7 7 7 7 8 7 7 9 8 6 3 5
2 2 3 3 3 2 3 2 2 2 3 4 6 6 5 15 13 11 8 8 9 7 6 7 9 10 9 10 9 10 10 8 7 8 10 11 9 9 8 8 7 9 9 9 11 12 8 4 4
4 3 3 3 3 2 3 2 4 4 4 3 9 4 8 14 10 9 7 5 5 6 6 4 3 5 7 6 8 10 10 11 10 11 8 9 12 10 9 9 9 10 11 11 11 14 10 7 6
3 3 2 3 5 4 3 3 4 3 2 5 4 5 6 17 11 8 7 6 5 6 7 7 8 7 8 7 6 7 12 11 13 12 11 11 11 12 12 11 11 12 12 12 12 14 13 10 7
1 4 2 4 6 3 5 3 3 3 6 4 3 5 7 16 11 8 5 4 5 5 5 6 6 7 9 12 11 9 9 11 13 14 14 14 13 13 13 14 13 13 13 13 15 16 15 12 10
4 3 4 1 2 3 5 3 6 3 4 4 9 13 18 13 9 6 4 4 5 5 6 7 7 7 7 7 9 10 11 10 9 10 13 15 15 14 15 15 15 16 16 15 16 18 17 16 14
4 4 2 1 2 4 6 3 3 7 2 6 16 16 14 11 8 4 4 4 4 3 2 1 2 1 5 8 7 7 7 8 9 9 9 10 11 13 15 15 16 17 18 19 18 19 21 20 16
3 3 5 3 1 1 4 4 2 5 2 8 15 14 13 10 7 6 5 6 6 5 4 5 5 4 3 3 5 4 4 6 6 7 9 10 10 10 9 10 13 16 17 19 20 21 22 21 19
1 2 3 5 3 2 2 2 2 4 9 15 16 11 9 9 10 9 8 7 7 7 9 10 12 12 11 9 6 3 1 3 7 8 9 10 12 12 13 12 11 12 13 17 20 23 25 25 25
1 1 1 3 5 2 1 2 1 8 13 13 11 8 8 10 10 11 9 8 7 8 11 12 12 13 12 11 9 7 5 4 3 7 11 13 15 15 15 16 16 15 14 15 18 20 24 29 32
4 2 2 3 5 2 3 5 6 6 17 16 11 7 9 11 12 9 9 6 8 9 9 9 8 8 7 7 6 6 7 8 8 8 9 11 13 15 16 16 16 15 14 15 17 19 21 21 25
2 4 1 1 4 3 5 7 4 8 21 16 11 8 12 13 11 9 8 7 10 7 6 4 3 4 5 7 10 12 14 16 16 17 16 16 16 17 17 17 16 15 15 15 15 16 20 23 22
5 2 4 3 7 2 4 4 4 8 17 14 10 13 13 14 12 10 9 9 9 6 3 1 2 6 10 14 17 18 19 20 21 20 19 20 21 22 22 21 19 18 17 16 15 16 18 18 21
5 4 4 3 3 1 3 7 2 6 11 12 9 15 15 15 12 11 11 10 6 2 1 4 7 11 16 19 22 23 24 23 23 21 21 22 22 22 25 24 23 21 20 18 17 17 14 14 15
0 3 3 2 3 2 4 6 6 7 9 14 13 16 17 15 13 13 11 8 5 3 4 7 9 13 18 23 26 28 28 27 26 23 21 21 22 24 24 25 24 24 23 21 19 17 16 16 20
4 3 3 2 2 3 2 8 7 6 8 21 21 19 21 17 18 16 12 9 7 6 7 9 13 16 20 24 26 28 29 30 28 26 23 20 21 22 23 26 25 25 23 22 22 20 20 22 21
2 4 3 2 2 3 4 7 2 1 2 7 16 23 23 20 21 17 13 9 7 7 9 13 16 19 22 24 27 28 28 27 27 24 20 17 18 19 21 21 23 27 25 24 22 23 23 23 25
1 3 3 5 4 3 3 4 3 1 3 2 13 24 23 22 18 16 12 8 7 8 11 15 16 18 21 24 24 24 22 22 20 18 18 18 19 19 18 18 21 21 24 24 24 23 25 24 29
2 3 4 3 4 3 1 3 6 3 2 3 6 24 24 22 18 14 9 6 6 7 10 12 16 19 23 23 21 20 18 19 19 19 19 19 20 20 18 19 19 22 22 26 24 23 28 26 29
6 4 6 4 3 1 5 6 5 5 7 5 5 20 22 20 15 10 5 2 4 8 10 14 18 21 23 20 18 16 18 19 20 19 20 21 23 24 22 21 20 21 21 24 26 25 26 30 28
4 5 3 4 3 5 1 4 8 3 5 11 14 22 21 17 12 8 4 1 5 8 12 17 20 23 22 18 16 16 18 19 21 22 23 24 24 23 22 21 20 20 21 22 26 29 27 28 31
3 4 4 6 3 4 2 6 5 4 7 19 24 22 19 15 10 5 1 4 7 10 14 17 20 21 22 20 19 19 21 23 25 27 27 27 27 26 23 20 20 21 21 23 23 27 32 31 32
2 3 3 4 1 3 3 6 6 5 6 16 21 20 17 13 8 4 2 5 7 11 14 17 19 20 19 21 23 25 27 27 27 26 27 28 26 26 26 25 24 25 25 24 26 26 28 33 33
3 3 3 2 2 4 4 5 4 4 8 7 9 17 14 10 7 5 5 5 8 11 14 18 18 19 20 22 23 22 22 21 18 18 17 17 18 21 24 28 28 26 26 27 26 29 28 30 31
2 2 2 2 4 4 1 5 4 8 9 8 9 15 12 9 8 6 5 6 9 12 16 17 17 20 22 21 20 19 18 14 13 14 16 19 21 22 22 23 25 26 27 28 30 29 28 29 30
4 6 6 4 4 2 2 6 4 7 10 16 15 14 10 8 3 2 4 5 9 13 15 16 18 21 22 20 18 16 15 15 16 18 19 21 22 21 22 23 23 23 22 22 26 27 27 28 30

GFSSGP_850_spd_219.txt.gz
Wind_Speed
1 3 4 3 2 3 2 3 2 2 2 1 4 3 4 4 2 2 12 12 13 12 9 9 12 12 12 12 12 11 11 10 9 8 7 6 6 7 6 6 5 6 6 3 5 6 7 7 7
3 5 4 3 3 0 3 2 3 2 6 12 9 6 4 3 4 6 11 12 15 13 11 9 10 12 12 11 11 11 10 9 9 7 7 6 6 6 5 5 5 7 6 3 4 4 5 5 4
4 5 1 3 2 3 3 3 2 1 9 2 4 6 3 2 5 7 7 13 15 15 12 9 10 11 10 10 10 9 9 9 8 7 6 5 5 5 5 5 6 7 6 3 3 2 2 2 2
4 3 5 2 2 3 3 1 0 4 2 0 5 6 5 4 6 6 7 13 14 15 12 10 10 10 10 9 8 9 8 8 7 6 5 5 4 5 4 4 5 6 6 3 5 3 1 0 1
3 3 3 2 3 3 3 2 2 1 2 3 2 3 3 8 9 8 8 11 11 16 15 12 12 11 10 9 8 8 9 9 8 6 5 4 4 4 4 4 4 6 7 4 4 5 4 2 1
3 3 3 2 3 4 4 4 4 2 2 5 4 5 3 12 11 9 10 10 10 15 13 12 11 11 11 10 10 10 8 8 9 7 7 5 5 5 4 4 4 6 7 6 6 7 7 6 3
5 3 3 3 3 4 3 5 3 5 4 2 10 4 7 13 11 11 9 10 11 9 9 8 9 11 12 12 12 11 10 9 7 7 5 5 6 6 4 5 5 6 7 7 7 8 10 8 4
3 3 3 3 2 4 2 5 5 3 3 9 5 5 5 16 13 10 8 7 7 7 5 4 5 4 2 3 4 9 10 11 8 9 6 6 6 6 7 6 6 7 8 9 9 9 10 11 7
2 3 1 3 4 3 1 1 3 5 7 4 4 6 10 18 14 10 7 6 5 4 4 3 3 4 4 3 3 3 4 7 8 7 7 7 6 7 7 7 9 10 10 10 10 9 11 11 10
4 3 5 3 3 2 1 2 5 4 5 2 4 6 17 17 12 8 6 5 5 5 5 5 5 5 5 4 6 7 7 6 6 6 6 8 9 9 9 9 9 11 12 12 12 11 11 13 15
2 3 2 2 3 3 2 1 2 4 2 7 9 16 21 17 13 9 6 5 4 4 4 4 4 5 6 5 4 3 3 3 4 6 6 8 9 10 10 10 11 12 13 13 14 13 14 15 16
0 4 3 1 2 1 2 3 1 5 2 5 10 18 20 16 12 7 6 5 6 6 5 6 6 6 6 6 4 3 2 1 0 1 4 6 7 9 10 10 10 10 11 12 13 14 16 16 17
2 1 2 2 1 2 2 1 3 6 6 7 18 17 16 13 9 8 8 9 9 9 12 13 13 12 12 9 8 5 4 2 1 3 5 7 8 9 10 11 11 11 11 12 13 14 15 16 18
2 2 3 2 2 1 1 1 0 2 7 17 18 15 13 10 9 11 11 11 12 15 16 18 17 16 14 12 10 7 5 4 3 4 5 7 8 9 10 11 11 12 13 14 14 15 16 17 16
0 4 4 3 2 0 1 3 5 4 12 19 17 14 12 11 11 11 12 13 15 16 16 15 13 12 8 6 3 3 5 7 8 9 10 11 12 13 13 13 12 12 13 13 13 14 15 16 20
3 4 3 1 3 0 1 5 1 9 17 17 14 13 12 14 14 14 13 14 17 15 13 11 8 6 3 1 5 8 10 11 11 12 13 13 14 15 17 18 17 17 17 16 15 15 14 14 16
5 2 2 5 3 1 2 4 2 7 17 18 16 13 14 17 18 17 15 16 16 13 11 7 4 2 3 6 9 12 13 14 15 14 14 15 15 16 18 20 20 21 21 20 20 18 17 15 14
3 2 3 4 1 0 2 7 5 4 15 20 17 13 17 18 19 19 17 18 16 13 10 6 4 4 6 10 13 14 15 15 16 17 17 17 17 17 17 18 20 21 22 22 22 22 20 18 16
3 2 2 3 1 1 5 6 8 5 10 14 16 15 18 18 17 18 18 19 16 13 9 6 5 6 10 13 15 16 18 19 18 18 18 18 18 17 17 18 18 19 21 21 22 22 22 21 18
2 2 4 3 1 2 4 10 7 7 8 20 21 19 21 21 20 20 20 18 15 12 9 6 6 9 12 15 17 20 22 23 23 21 18 17 17 16 16 17 17 17 19 20 22 23 22 22 20
3 4 3 5 1 3 4 7 4 3 9 13 20 22 23 25 25 24 23 19 14 11 8 6 8 10 12 15 17 19 19 19 19 18 17 15 15 16 17 16 17 19 19 19 21 23 22 22 19
2 1 1 2 2 3 2 4 5 3 5 5 18 23 27 28 25 26 23 19 14 11 8 7 8 10 13 16 18 21 22 22 21 21 20 18 15 16 17 17 19 18 19 20 19 18 20 23 25
3 3 3 2 2 2 3 1 5 2 5 8 13 20 27 30 30 29 24 18 14 10 8 6 7 11 14 17 19 20 20 20 22 21 22 20 18 17 18 19 20 20 22 21 20 20 22 24 26
6 4 5 4 2 2 5 4 4 5 5 4 2 11 20 28 30 28 22 18 13 10 6 6 8 11 14 16 18 20 20 21 23 25 25 25 23 21 19 20 23 23 22 22 22 21 22 24 28
3 5 2 3 2 5 4 1 7 5 4 3 6 10 19 27 27 25 23 17 12 8 6 7 9 12 14 16 18 20 21 21 22 23 24 23 23 22 21 21 22 24 23 22 22 22 23 24 27
3 4 5 5 2 3 1 5 4 3 7 9 6 16 22 26 25 21 16 13 10 6 4 7 10 13 15 17 20 21 19 18 19 19 18 17 17 17 17 18 20 22 23 23 22 23 23 24 26
4 3 4 6 2 1 3 6 7 3 4 3 12 22 24 22 21 18 13 9 6 4 5 8 12 14 15 18 21 20 17 14 14 16 16 17 18 18 18 19 20 20 19 22 24 25 24 25 25
2 4 3 1 3 4 4 4 4 5 5 2 7 19 22 20 18 15 11 8 5 5 7 10 13 15 17 19 21 19 17 12 13 15 15 17 20 21 21 21 22 24 23 21 24 29 29 28 29
2 2 3 3 3 4 1 4 4 4 5 6 9 20 20 17 16 14 10 7 5 7 9 11 13 14 15 18 21 18 15 14 14 17 18 20 20 22 23 22 23 25 26 21 21 24 25 30 29
3 6 4 3 4 1 2 6 1 6 7 8 15 19 15 14 13 11 8 7 6 7 10 9 10 13 17 20 20 14 14 14 15 15 18 18 20 21 20 19 19 20 16 15 18 17 19 22 24

GFSSGP_850_spd_222.txt.gz
Wind_Speed
1 3 4 0 4 4 4 1 1 2 4 1 3 2 1 8 1 2 10 5 10 12 11 10 12 12 12 12 11 11 11 11 10 10 8 7 7 7 6 5 6 7 5 4 5 6 7 7 7
3 5 3 2 5 7 3 1 3 2 3 7 6 4 3 3 4 5 9 8 13 13 11 10 12 12 12 12 11 10 10 9 8 7 7 7 7 7 6 5 5 7 5 4 4 4 5 4 4
4 5 3 2 2 6 4 2 1 4 6 2 3 3 2 4 4 8 7 10 15 13 11 10 11 12 11 11 11 10 9 8 7 6 7 7 6 6 5 5 6 7 6 4 3 2 2 3 2
4 1 1 5 6 3 3 2 1 6 3 0 2 6 4 2 4 5 8 11 13 13 11 11 11 12 11 10 10 9 9 8 8 7 6 6 6 5 5 4 5 7 7 3 5 3 1 1 1
2 1 3 3 4 3 4 2 4 5 3 2 2 5 4 4 6 6 5 11 12 13 12 12 13 13 12 11 10 9 9 9 7 6 6 5 5 6 5 5 5 6 6 4 5 5 3 2 1
1 1 4 5 4 2 4 5 7 5 4 3 2 6 5 8 7 6 10 11 13 13 13 10 11 11 11 11 11 11 11 10 9 8 6 5 6 6 5 5 5 6 6 6 5 5 5 5 3
2 2 3 4 5 4 1 3 6 6 6 6 4 4 6 8 10 10 10 11 10 12 11 10 11 12 12 11 11 12 10 11 11 9 7 6 6 6 5 5 5 5 6 7 6 7 7 8 6
1 2 2 1 4 3 1 2 1 4 3 6 6 4 6 12 13 11 11 10 10 9 8 6 5 8 9 11 12 14 16 13 9 9 8 6 6 7 7 5 6 6 7 7 8 8 9 9 10
2 3 4 2 2 3 0 4 2 1 4 3 3 3 7 18 14 11 9 8 7 6 5 4 3 2 4 3 3 1 2 12 8 8 8 6 6 7 6 7 7 8 8 8 8 9 10 10 12
2 2 2 2 3 4 4 4 4 5 6 4 4 7 14 18 14 11 8 7 6 5 5 4 4 4 3 3 4 3 2 1 3 5 5 5 6 8 7 8 8 9 9 10 11 10 11 12 12
2 2 1 1 3 5 4 4 4 5 6 7 8 12 18 16 13 10 9 8 7 6 6 6 6 6 6 4 4 3 2 3 3 4 5 7 9 10 10 10 11 11 11 11 12 13 13 13 15
3 2 2 1 1 2 3 2 4 7 3 1 4 13 18 15 12 10 7 7 6 6 6 6 6 6 6 6 5 4 3 2 1 1 4 5 7 8 9 10 11 11 11 12 12 13 14 15 16
4 1 2 2 3 4 3 6 6 7 6 4 11 15 16 14 12 10 9 9 8 8 9 10 11 11 11 9 8 6 5 3 2 1 3 5 7 8 10 11 11 12 12 13 14 14 14 15 17
1 3 4 3 3 2 4 5 3 1 6 9 15 14 14 13 12 12 11 12 12 13 15 16 16 15 14 12 10 7 5 3 2 4 5 6 7 8 9 10 11 12 13 14 15 15 16 17 17
1 5 4 5 3 2 2 7 8 3 8 14 15 14 13 13 12 11 14 15 16 18 18 18 15 13 9 7 4 3 3 5 6 8 9 10 11 12 14 14 14 13 14 13 13 14 14 15 16
2 2 4 3 4 2 2 5 1 4 11 15 15 14 11 12 13 14 15 17 19 18 17 15 12 9 5 2 2 5 7 7 8 9 10 11 12 13 15 16 17 18 18 18 17 16 16 15 16
2 4 4 1 3 2 5 4 2 4 11 16 15 12 13 13 15 17 17 19 19 17 14 11 9 5 3 3 6 8 9 10 10 11 12 13 14 14 15 16 17 18 20 21 21 21 20 19 18
3 4 3 4 2 4 5 12 7 5 12 16 16 14 13 16 18 20 18 20 18 16 13 10 6 3 3 6 9 10 10 11 11 12 13 14 14 15 16 17 17 17 18 20 21 21 21 21 21
1 3 5 2 1 4 7 11 11 8 11 17 19 16 16 16 15 22 21 21 19 16 12 8 6 5 6 8 9 10 13 14 14 15 14 15 15 15 14 15 15 15 16 18 20 21 22 21 23
4 7 9 5 1 4 5 12 12 10 16 19 22 20 17 18 18 22 22 23 20 16 13 9 6 6 7 9 12 14 17 18 18 17 16 14 14 16 16 15 15 14 15 14 15 18 21 20 20
7 9 6 5 1 3 8 12 12 8 15 14 19 20 18 21 22 25 25 24 21 17 13 9 7 7 8 10 13 15 16 17 16 17 16 14 14 15 16 16 16 16 16 15 13 14 16 18 20
4 2 5 4 3 4 2 6 5 6 10 13 19 22 21 22 20 22 27 25 21 17 12 9 7 7 9 11 13 15 17 17 18 18 19 18 16 16 16 17 17 18 18 18 15 14 15 16 20
1 0 1 2 3 2 6 4 4 3 9 15 19 22 23 23 24 24 26 25 21 16 12 8 7 7 9 12 14 16 17 18 19 20 21 20 19 17 18 18 19 20 20 21 19 18 16 17 19
7 3 3 1 2 4 8 9 6 7 5 1 0 14 19 23 25 24 24 24 20 15 11 7 6 7 9 12 14 16 18 19 18 19 20 18 17 15 13 17 19 21 22 23 22 20 21 19 20
5 5 2 4 4 4 2 5 9 7 4 6 7 6 13 21 27 26 29 25 19 13 10 6 6 7 10 12 15 17 19 17 16 17 18 18 15 13 13 12 13 15 18 22 24 24 22 21 21
9 4 3 5 3 1 2 6 0 2 9 9 8 6 11 20 25 26 27 23 18 13 8 5 5 8 11 14 17 18 18 16 14 15 15 16 16 17 15 16 17 17 16 16 18 23 24 23 24
5 7 2 0 0 4 4 4 6 2 5 5 2 7 13 19 21 21 22 19 16 11 6 4 6 10 13 16 18 19 18 15 13 13 15 16 17 18 18 19 20 19 20 20 20 21 24 25 24
4 5 3 3 4 5 4 4 4 6 9 5 2 9 13 15 16 19 19 17 13 9 4 4 8 11 13 15 18 20 16 14 13 14 15 16 18 19 20 20 19 19 20 22 23 22 21 23 27
4 4 3 2 2 3 3 2 3 6 8 5 4 11 15 15 16 17 17 14 11 5 3 5 8 10 12 15 19 19 15 14 15 15 14 16 17 18 22 21 20 19 18 18 16 16 19 23 24
3 6 11 6 5 2 2 3 4 4 6 1 6 13 13 14 15 16 14 12 8 4 4 6 7 10 12 15 21 19 15 14 15 15 14 16 17 20 24 23 21 19 17 16 16 15 18 17 19

GFSSGP_850_spd_225.txt.gz
Wind_Speed
4 1 1 3 5 5 10 2 4 3 3 3 5 7 9 15 9 2 8 6 8 11 10 9 10 11 10 9 9 10 10 10 9 9 8 7 7 6 6 4 7 7 4 5 7 8 8 7 6
2 1 2 4 5 8 3 8 3 5 5 1 1 2 1 6 10 7 7 4 8 9 8 9 11 11 10 9 9 9 9 9 8 7 6 6 6 6 5 4 5 6 3 4 5 6 6 6 5
5 3 4 3 5 7 8 7 4 1 2 2 1 4 4 4 5 5 4 5 12 9 9 11 11 11 11 9 8 8 8 8 7 6 6 5 6 5 4 4 4 6 4 3 2 3 4 4 4
1 1 5 5 9 7 6 6 3 3 3 1 3 5 5 3 2 5 7 6 12 11 9 11 11 10 10 10 9 9 8 8 7 7 7 6 6 5 4 4 5 6 6 3 4 1 1 2 3
1 3 5 5 10 4 5 6 5 6 3 3 2 5 4 2 4 5 6 6 10 9 9 12 12 11 11 11 11 10 9 9 8 7 7 6 6 5 4 4 5 5 6 4 4 3 2 1 1
4 4 5 6 9 3 5 4 5 6 1 2 4 5 5 4 4 6 4 11 11 11 11 10 10 10 10 10 10 10 10 9 8 6 6 6 6 6 6 5 5 5 6 6 5 4 4 3 2
5 4 6 7 6 6 6 5 6 6 4 4 3 4 6 8 7 7 8 9 9 9 9 8 9 10 10 10 10 10 10 10 9 7 6 6 5 6 6 5 6 6 6 7 6 6 6 5 6
3 3 5 2 7 5 4 3 4 7 3 2 1 1 6 11 10 10 11 8 8 8 8 8 7 9 8 9 9 12 13 10 9 7 6 5 5 7 6 5 6 6 6 7 8 8 8 7 8
2 4 6 3 5 5 3 4 1 3 5 4 3 1 5 14 12 11 10 9 8 8 7 6 4 4 4 5 1 2 3 14 12 8 7 9 4 7 6 7 6 7 7 8 8 10 10 10 10
5 4 5 3 5 6 6 6 5 5 6 7 5 3 10 13 12 9 7 6 5 5 5 4 4 3 4 3 2 2 4 5 7 5 6 5 8 6 6 6 6 7 8 8 9 11 11 11 12
1 5 3 1 4 6 6 6 5 7 7 10 9 10 14 14 11 9 8 6 6 5 5 5 5 5 4 4 4 4 4 4 5 5 6 5 4 3 4 4 4 6 9 10 10 11 12 11 12
6 4 4 2 2 3 6 5 6 8 9 3 5 10 16 15 11 9 8 6 6 6 5 6 5 6 6 6 6 6 6 5 3 3 4 5 5 5 5 3 7 8 10 10 11 12 12 12 13
8 4 4 4 5 6 6 10 8 9 9 5 4 12 15 15 11 9 8 7 7 7 7 8 8 9 9 8 8 7 6 5 3 1 2 4 5 6 7 7 7 6 9 10 11 12 12 14 14
4 6 8 6 6 5 5 7 3 2 5 6 9 12 14 13 12 10 9 9 8 9 10 11 13 12 11 10 9 7 5 3 1 1 3 4 5 6 7 8 9 9 11 11 12 14 14 14 15
6 8 8 10 7 5 4 9 10 6 4 8 12 12 13 11 11 9 10 11 11 12 15 15 15 14 11 8 5 3 3 4 5 6 7 8 9 9 10 11 12 13 13 13 13 13 13 13 14
6 5 8 7 5 4 4 5 6 6 8 11 13 13 12 12 9 9 11 13 14 16 16 15 12 9 6 3 2 5 6 6 6 7 8 9 10 12 13 14 15 16 16 15 16 16 14 16 14
6 9 8 4 5 1 9 5 5 6 10 12 15 15 13 11 12 12 12 14 15 14 15 13 9 6 2 1 5 7 7 7 8 8 9 11 11 13 13 15 15 17 17 17 20 19 19 17 14
7 8 7 10 3 7 9 14 7 8 11 14 17 17 15 15 15 15 15 15 13 12 13 11 7 4 2 4 6 7 8 9 10 10 12 13 13 14 14 14 14 15 13 13 18 20 21 20 15
8 11 13 9 0 7 11 15 12 10 13 16 19 20 18 16 16 16 17 17 18 15 12 10 8 5 3 5 5 7 9 11 12 12 13 13 13 14 13 12 12 11 11 10 12 18 20 19 19
8 11 13 12 3 5 13 17 15 13 17 19 21 22 21 19 19 19 19 19 17 17 15 11 7 5 5 6 7 9 12 13 13 13 14 14 14 15 14 14 13 12 12 11 10 10 16 14 13
9 12 12 10 7 12 11 18 22 22 20 19 21 23 23 23 23 23 22 20 18 19 15 12 9 6 5 6 8 11 12 12 10 15 15 15 15 15 15 15 14 13 14 13 11 11 13 16 14
9 4 6 8 6 4 1 6 8 11 13 15 19 22 24 25 24 24 23 21 20 19 18 13 9 6 4 6 8 10 12 14 15 16 16 17 15 15 15 16 15 15 15 15 15 12 14 16 18
3 3 4 5 7 7 9 6 7 3 10 14 16 20 23 24 25 26 25 23 19 20 18 14 9 6 4 7 9 11 14 16 17 16 16 15 14 14 13 14 16 17 16 16 17 16 16 17 17
2 3 4 2 3 5 14 12 7 8 6 7 3 15 20 22 23 23 22 21 20 20 16 12 8 5 4 6 10 13 15 17 17 15 13 13 12 13 11 11 11 12 13 15 16 17 18 18 20
7 5 3 3 3 5 3 4 13 11 7 4 3 3 9 19 22 24 24 22 19 19 15 11 6 4 5 7 11 14 16 17 15 13 12 14 12 10 11 14 13 14 15 15 15 16 18 20 20
12 9 4 5 3 2 3 6 1 3 5 5 3 4 7 15 22 24 22 21 19 17 12 8 4 3 5 9 13 15 17 16 16 14 14 15 15 13 13 15 16 17 18 19 19 19 19 19 21
6 6 3 5 9 5 7 10 4 3 4 6 3 2 6 12 20 20 21 19 17 14 11 6 3 3 8 11 13 15 15 14 15 15 14 15 15 15 17 17 18 16 16 17 19 20 22 20 19
5 2 3 4 4 6 6 6 3 5 8 6 3 4 8 13 18 20 19 17 15 13 9 4 2 4 8 10 13 16 15 12 12 14 13 12 13 16 16 18 20 20 19 18 19 19 17 15 17
6 6 6 3 3 4 5 1 4 6 7 7 3 6 11 14 17 19 17 15 14 11 7 3 2 5 8 10 13 17 16 13 12 14 13 11 13 15 17 21 23 22 21 18 19 17 15 15 17
10 13 14 6 7 4 3 4 5 6 7 6 3 8 11 13 15 15 14 14 12 9 5 2 3 6 9 12 14 17 17 14 12 14 14 13 16 15 19 22 21 21 19 18 18 17 19 18 18

GFSSGP_850_spd_228.txt.gz
Wind_Speed
3 6 4 1 1 2 5 4 3 5 2 7 7 7 7 16 5 4 8 10 9 6 5 10 11 10 10 10 10 10 10 9 8 8 9 8 7 6 5 5 8 6 6 7 9 9 8 8 7
4 3 3 4 1 3 2 8 10 9 12 7 2 9 5 6 14 11 8 9 11 5 3 8 10 10 10 9 10 9 9 8 7 7 6 5 6 5 5 5 6 6 5 6 7 8 7 7 6
6 3 3 2 3 3 1 6 8 6 5 9 2 5 6 5 5 5 5 10 10 11 12 6 10 10 9 9 9 8 7 7 6 5 5 5 5 4 4 4 5 6 4 4 4 5 6 6 5
0 3 4 1 7 4 5 8 9 7 5 2 8 8 7 5 3 5 8 11 10 10 12 10 10 9 9 8 8 8 7 7 6 5 5 5 6 4 3 3 4 5 5 2 1 2 3 4 5
7 5 3 4 8 5 8 9 4 8 4 3 2 7 7 5 3 5 9 9 10 9 9 11 10 10 10 9 9 8 7 6 5 5 5 4 4 4 4 3 4 5 5 2 1 1 1 1 3
5 4 3 3 7 7 8 11 6 6 6 6 3 6 5 4 4 3 9 8 10 9 7 10 9 8 8 8 8 7 7 6 6 6 5 5 5 4 3 3 3 4 5 4 3 2 2 2 1
3 2 5 5 6 2 5 7 6 9 4 5 3 3 10 4 7 8 8 9 11 9 6 6 6 7 7 7 7 7 7 7 7 6 5 4 5 5 4 4 4 5 5 5 5 4 4 4 4
4 2 5 5 2 1 4 6 2 7 5 3 2 4 8 11 10 9 7 7 7 7 7 5 4 4 3 5 5 6 7 8 8 5 3 3 5 6 5 5 5 4 5 5 5 6 6 6 6
5 2 5 3 3 4 7 4 3 4 5 2 5 7 14 13 11 11 10 11 9 7 7 5 5 3 3 4 5 5 1 11 8 3 9 8 5 9 7 5 5 6 6 6 6 7 8 8 9
2 3 6 5 6 4 9 1 9 0 7 4 4 4 8 9 11 10 9 9 8 8 6 5 4 5 5 3 3 5 3 7 11 9 6 7 12 12 5 4 5 7 6 7 8 9 10 10 10
2 3 6 6 8 7 7 7 5 4 6 1 13 14 12 11 10 7 6 6 8 6 6 5 5 6 6 6 7 5 4 5 6 6 6 4 2 2 2 1 5 5 6 6 8 9 10 11 10
3 8 4 7 4 5 6 9 7 10 8 2 3 9 15 13 12 12 11 9 7 6 5 5 6 6 10 11 10 8 7 5 4 5 6 8 8 6 6 6 7 7 8 9 9 9 10 9 11
7 7 6 7 6 8 10 9 10 13 7 5 3 12 15 15 10 9 8 7 7 6 7 7 9 10 11 13 12 10 8 6 4 3 4 4 5 4 4 7 7 7 9 8 9 9 10 11 11
6 8 12 9 8 6 5 11 2 5 11 7 9 12 14 14 14 9 9 7 6 7 10 12 11 12 11 11 10 9 7 5 3 1 1 2 4 4 5 6 7 7 10 10 11 10 10 12 13
6 5 8 14 9 4 2 8 10 13 6 10 12 14 16 15 13 11 9 8 7 9 12 14 15 15 14 11 9 6 3 1 1 1 2 4 6 6 7 9 9 11 12 12 11 12 11 11 11
4 4 3 4 6 4 3 7 7 8 7 13 15 17 17 16 13 12 13 10 10 13 16 17 16 13 10 7 5 4 3 2 2 2 4 5 6 7 8 9 10 12 13 13 14 14 14 14 13
4 3 7 4 8 2 6 6 5 6 9 13 17 18 19 17 15 14 15 16 12 15 16 16 13 10 6 4 2 2 3 3 3 4 6 7 8 9 10 11 12 13 13 12 15 14 18 17 15
6 6 6 5 5 4 6 11 10 12 12 15 18 21 21 21 20 18 17 17 18 16 14 12 10 7 4 1 2 2 3 4 5 7 8 9 10 11 11 11 12 12 11 10 12 17 16 17 19
4 7 9 9 4 0 6 9 11 14 18 15 19 23 23 22 20 21 21 19 19 18 17 12 9 5 2 1 1 3 5 7 8 8 8 10 11 12 11 11 12 11 11 11 11 14 18 17 18
7 8 9 9 3 2 7 12 11 10 13 24 22 21 26 23 25 24 24 26 23 19 16 14 10 6 3 2 2 4 6 8 9 11 12 11 12 13 12 12 12 11 12 12 12 11 12 14 12
7 7 8 8 8 5 8 10 11 13 24 22 26 24 25 29 30 28 27 26 24 22 19 15 11 7 3 2 3 5 7 8 9 12 13 14 14 13 14 13 13 12 11 12 11 12 12 13 13
4 5 6 6 4 3 3 5 6 11 10 9 22 23 21 30 31 29 28 25 25 23 20 16 12 8 4 2 4 6 8 10 12 14 13 13 13 13 13 13 13 14 14 14 13 11 12 12 16
1 4 4 4 4 4 3 2 6 4 4 6 11 20 21 27 31 29 27 24 23 22 20 16 11 7 4 1 3 6 9 11 13 13 13 12 12 13 13 11 11 11 11 13 15 16 16 16 16
4 4 6 2 1 2 9 7 4 2 5 4 11 10 16 22 27 27 26 24 22 20 18 15 10 6 3 1 4 8 11 13 14 14 13 12 10 9 11 12 12 12 12 14 14 14 15 16 18
3 4 3 3 2 6 4 1 8 6 7 6 7 9 4 17 24 29 29 27 25 21 18 14 10 6 3 1 5 9 11 13 14 14 14 14 12 11 10 12 15 15 15 16 17 16 16 15 18
6 4 3 5 2 3 1 4 4 6 9 7 4 4 6 3 24 30 31 29 23 20 17 14 10 6 2 3 6 9 12 14 14 15 14 13 13 13 12 14 14 15 16 17 16 19 16 16 18
2 3 1 3 4 2 5 6 4 5 6 9 6 3 2 6 8 28 30 24 19 18 16 13 9 6 2 2 6 10 12 13 14 15 15 14 12 12 14 14 15 17 18 19 18 18 19 18 18
3 3 2 2 3 5 5 5 2 6 6 5 5 5 3 5 21 24 23 21 19 19 16 13 9 5 1 3 7 11 14 14 15 14 13 13 12 12 14 15 17 20 19 20 18 17 17 17 13
4 3 4 0 2 3 3 2 3 6 5 4 6 9 8 13 19 22 20 18 19 17 15 12 8 4 0 5 8 12 14 16 17 13 14 12 13 13 15 16 19 19 19 19 17 17 17 16 16
2 5 9 4 5 4 3 5 5 5 4 6 6 10 10 11 13 16 18 19 17 15 13 10 7 3 2 6 10 12 14 16 18 14 13 13 13 14 14 18 20 18 20 17 14 13 14 15 17